Weather History for Sidney, NE

Change the Weather History Date:

Tuesday, June 4, 2013

  Actual Average Record
Temperature  
Mean Temperature 62 °F 63 °F  
Max Temperature 75 °F 77 °F 93 °F (2012)
Min Temperature 49 °F 49 °F 33 °F (1951)
Degree Days  
Heating Degree Days 3 4  
Month to date heating degree days 18 16  
Since 1 June heating degree days 18 16  
Since 1 July heating degree days 6658 6178  
Cooling Degree Days 0 2  
Month to date cooling degree days 6 8  
Year to date cooling degree days 39 30  
Since 1 June cooling degree days 6 8  
Growing Degree Days 10 (Base 50)    
Moisture  
Dew Point 45 °F    
Average Humidity 60    
Maximum Humidity 86    
Minimum Humidity 33    
Precipitation  
Precipitation 0.02 in 0.11 in 1.26 in (1983)
Month to date precipitation 0.02 0.44  
Year to date precipitation 5.53 7.20  
Sea Level Pressure  
Sea Level Pressure 29.96 in    
Wind  
Wind Speed 13 mph (NNE)    
Max Wind Speed 29 mph    
Max Gust Speed 36 mph    
Visibility 10 miles    
Events Rain    
T = Trace of Precipitation, MM = Missing Value Source: NWS Daily Summary

Daily Weather History Graph

Daily Weather History Graph

Search for Another Location

Airport:

Trip Planner

Search our weather history database for the weather conditions in past years. The results will help you decide how hot, cold, wet, or windy it might be!

Date:

Astronomy

Jun. 04, 2013 Rise Set
Actual Time 5:20 AM MDT 8:20 PM MDT
Civil Twilight 4:47 AM MDT 8:53 PM MDT
Nautical Twilight 4:05 AM MDT 9:35 PM MDT
Astronomical Twilight 3:16 AM MDT 10:25 PM MDT
Moon 2:53 AM MDT (6/4) 4:50 PM MDT (6/4)
Length of Visible Light 16h 06m
Length of Day
15h 00m
Waning Crescent, 14% of the Moon is Illuminated
Jun 4
Waning Crescent
Jun 8
New
Jun 16
First Quarter
Jun 23
Full
Jun 29
Last Quarter

Hourly Weather History & Observations

Time (MDT) Temp. Dew Point Humidity Pressure Visibility Wind Dir Wind Speed Gust Speed Precip Events Conditions
12:53 AM 57.9 °F 50.0 °F 75% 29.78 in 10.0 mi NNE 12.7 mph - N/A   Clear
1:53 AM 57.0 °F 48.9 °F 74% 29.79 in 10.0 mi North 13.8 mph - N/A   Clear
2:53 AM 55.9 °F 48.9 °F 77% 29.82 in 10.0 mi North 12.7 mph - N/A   Clear
3:53 AM 53.1 °F 48.0 °F 83% 29.86 in 10.0 mi North 11.5 mph - N/A   Clear
4:53 AM 51.1 °F 45.0 °F 80% 29.89 in 10.0 mi NNW 13.8 mph - N/A   Clear
5:53 AM 48.9 °F 44.1 °F 83% 29.93 in 10.0 mi North 11.5 mph - N/A   Mostly Cloudy
6:53 AM 51.1 °F 43.0 °F 74% 29.95 in 10.0 mi NNW 15.0 mph - N/A   Clear
7:53 AM 55.0 °F 39.9 °F 57% 29.96 in 10.0 mi North 13.8 mph - N/A   Clear
8:53 AM 59.0 °F 39.9 °F 49% 29.97 in 10.0 mi North 15.0 mph - N/A   Clear
9:53 AM 63.0 °F 41.0 °F 45% 29.97 in 10.0 mi North 12.7 mph - N/A   Clear
10:53 AM 64.0 °F 43.0 °F 46% 29.97 in 10.0 mi ENE 6.9 mph - N/A   Clear
11:53 AM 68.0 °F 44.1 °F 42% 29.96 in 10.0 mi Variable 6.9 mph - N/A   Clear
12:53 PM 70.0 °F 44.1 °F 39% 29.94 in 10.0 mi NNE 6.9 mph - N/A   Clear
1:53 PM 72.0 °F 44.1 °F 37% 29.92 in 10.0 mi NE 9.2 mph 16.1 mph N/A   Clear
2:53 PM 73.0 °F 44.1 °F 35% 29.91 in 10.0 mi East 9.2 mph 17.3 mph N/A   Clear
3:53 PM 73.9 °F 43.0 °F 33% 29.92 in 10.0 mi NE 13.8 mph 18.4 mph N/A   Clear
4:53 PM 73.0 °F 43.0 °F 34% 29.93 in 10.0 mi ENE 8.1 mph - N/A   Clear
5:53 PM 70.0 °F 42.1 °F 36% 29.94 in 10.0 mi NE 12.7 mph 17.3 mph N/A   Partly Cloudy
6:53 PM 66.9 °F 43.0 °F 42% 29.96 in 10.0 mi NNE 18.4 mph - N/A   Overcast
7:53 PM 57.0 °F 46.9 °F 69% 30.04 in 10.0 mi North 21.9 mph 32.2 mph 0.01 in Rain Light Rain
8:53 PM 55.9 °F 45.0 °F 67% 30.06 in 10.0 mi NNE 12.7 mph - 0.00 in   Mostly Cloudy
9:53 PM 57.0 °F 45.0 °F 64% 30.08 in 10.0 mi North 16.1 mph - N/A   Overcast
10:53 PM 53.1 °F 44.1 °F 71% 30.10 in 10.0 mi North 25.3 mph 34.5 mph 0.01 in   Overcast
11:50 PM 51.8 °F 46.4 °F 82% 30.19 in 10.0 mi NNE 16.1 mph - N/A   Overcast
11:53 PM 51.1 °F 46.0 °F 83% 30.10 in 10.0 mi NNE 16.1 mph - N/A   Overcast